Time,TemperatureF,DewpointF,PressureIn,WindDirection,WindDirectionDegrees,WindSpeedMPH,WindSpeedGustMPH,Humidity,HourlyPrecipIn,Conditions,Clouds,dailyrainin,SolarRadiationWatts/m^2,SoftwareType,DateUTC
2013-02-03 00:01:00,15.6,11.6,29.81,SE,146,0.0,0.0,84,0.00,-SN,BKN,0.00,0.0,WeatherDisplay:10.37,2013-02-03 05:01:00,
2013-02-03 00:02:00,15.6,11.6,29.81,SE,146,0.0,0.0,84,0.00,-SN,BKN,0.00,0.0,WeatherDisplay:10.37,2013-02-03 05:02:00,
2013-02-03 00:03:00,15.6,11.6,29.81,SE,146,0.0,0.0,84,0.00,-SN,BKN,0.00,0.0,WeatherDisplay:10.37,2013-02-03 05:03:00,
2013-02-03 00:08:00,15.3,11.3,29.81,SE,146,0.0,0.0,84,0.00,-SN,BKN,0.00,0.0,WeatherDisplay:10.37,2013-02-03 05:08:00,
2013-02-03 00:13:00,15.1,11.1,29.81,SE,146,0.0,0.0,84,0.00,-SN,BKN,0.00,0.0,WeatherDisplay:10.37,2013-02-03 05:13:00,
2013-02-03 00:18:00,14.9,10.9,29.81,SE,146,0.0,0.0,84,0.00,-SN,BKN,0.00,0.0,WeatherDisplay:10.37,2013-02-03 05:18:00,
2013-02-03 00:23:00,14.7,11.3,29.81,SE,143,0.0,0.0,86,0.00,-SN,BKN,0.00,0.0,WeatherDisplay:10.37,2013-02-03 05:23:00,
2013-02-03 00:28:00,14.7,11.3,29.80,SE,140,0.0,0.0,86,0.00,-SN,BKN,0.00,0.0,WeatherDisplay:10.37,2013-02-03 05:28:00,
2013-02-03 00:33:00,14.5,10.9,29.80,SE,140,0.0,0.0,85,0.00,-SN,BKN,0.00,0.0,WeatherDisplay:10.37,2013-02-03 05:33:00,
2013-02-03 00:38:00,14.4,10.9,29.81,SE,140,0.0,0.0,86,0.00,-SN,BKN,0.00,0.0,WeatherDisplay:10.37,2013-02-03 05:38:00,
2013-02-03 00:43:00,14.2,10.5,29.80,SE,139,0.0,0.0,85,0.00,-SN,BKN,0.00,0.0,WeatherDisplay:10.37,2013-02-03 05:43:00,
2013-02-03 00:48:00,13.8,10.1,29.80,SE,140,0.0,0.0,85,0.00,-SN,BKN,0.00,0.0,WeatherDisplay:10.37,2013-02-03 05:48:00,
2013-02-03 00:53:00,13.8,10.1,29.80,SE,140,0.0,0.0,85,0.00,-SN,BKN,0.00,0.0,WeatherDisplay:10.37,2013-02-03 05:53:00,
2013-02-03 00:58:00,13.5,9.8,29.79,SE,140,0.0,0.0,85,0.00,-SN,BKN,0.00,0.0,WeatherDisplay:10.37,2013-02-03 05:58:00,
2013-02-03 01:03:00,13.3,9.6,29.80,SE,139,0.0,0.0,85,0.00,-SN,BKN,0.00,0.0,WeatherDisplay:10.37,2013-02-03 06:03:00,
2013-02-03 01:08:00,13.3,9.6,29.80,SE,140,0.0,0.0,85,0.00,-SN,BKN,0.00,0.0,WeatherDisplay:10.37,2013-02-03 06:08:00,
2013-02-03 01:13:00,13.1,9.4,29.80,SE,140,0.0,0.0,85,0.00,-SN,BKN,0.00,0.0,WeatherDisplay:10.37,2013-02-03 06:13:00,
2013-02-03 01:18:00,12.9,9.5,29.79,SE,140,0.0,0.0,86,0.00,-SN,BKN,0.00,0.0,WeatherDisplay:10.37,2013-02-03 06:18:00,
2013-02-03 01:23:00,13.1,10.0,29.79,SE,140,0.0,0.0,87,0.00,-SN,BKN,0.00,0.0,WeatherDisplay:10.37,2013-02-03 06:23:00,
2013-02-03 01:28:00,12.9,9.8,29.79,SE,140,0.0,0.0,87,0.00,-SN,BKN,0.00,0.0,WeatherDisplay:10.37,2013-02-03 06:28:00,
2013-02-03 01:33:00,12.6,9.2,29.79,SSE,154,0.0,0.0,86,0.00,-SN,BKN,0.00,0.0,WeatherDisplay:10.37,2013-02-03 06:33:00,
2013-02-03 01:38:00,12.4,9.0,29.79,SSE,154,0.0,0.0,86,0.00,-SN,BKN,0.00,0.0,WeatherDisplay:10.37,2013-02-03 06:38:00,
2013-02-03 01:43:00,12.4,9.0,29.80,SSE,154,0.0,0.0,86,0.00,-SN,BKN,0.00,0.0,WeatherDisplay:10.37,2013-02-03 06:43:00,
2013-02-03 01:48:00,12.2,9.1,29.79,SE,133,1.0,1.1,87,0.00,-SN,BKN,0.00,0.0,WeatherDisplay:10.37,2013-02-03 06:48:00,
2013-02-03 01:53:00,12.0,8.9,29.79,SE,141,0.0,0.0,87,0.00,-SN,BKN,0.00,0.0,WeatherDisplay:10.37,2013-02-03 06:53:00,
2013-02-03 01:58:00,12.0,8.6,29.80,SE,138,0.0,0.0,86,0.00,-SN,BKN,0.00,0.0,WeatherDisplay:10.37,2013-02-03 06:58:00,
2013-02-03 02:03:00,12.0,8.6,29.79,SE,137,0.0,0.0,86,0.00,-SN,BKN,0.00,0.0,WeatherDisplay:10.37,2013-02-03 07:03:00,
2013-02-03 02:08:00,11.8,8.5,29.79,SE,136,0.0,0.0,86,0.00,-SN,BKN,0.00,0.0,WeatherDisplay:10.37,2013-02-03 07:08:00,
2013-02-03 02:13:00,12.0,8.6,29.79,South,180,0.0,0.0,86,0.00,-SN,BKN,0.00,0.0,WeatherDisplay:10.37,2013-02-03 07:13:00,
2013-02-03 02:18:00,12.4,9.2,29.79,South,177,0.0,0.0,87,0.00,-SN,BKN,0.00,0.0,WeatherDisplay:10.37,2013-02-03 07:18:00,
2013-02-03 02:23:00,13.1,10.5,29.79,South,173,0.1,1.1,89,0.00,-SN,BKN,0.00,0.0,WeatherDisplay:10.37,2013-02-03 07:23:00,
2013-02-03 02:28:00,13.8,11.4,29.79,SSE,163,0.3,2.3,90,0.00,-SN,BKN,0.00,0.0,WeatherDisplay:10.37,2013-02-03 07:28:00,
2013-02-03 02:33:00,13.8,10.9,29.79,SSE,147,0.2,1.1,88,0.00,-SN,BKN,0.00,0.0,WeatherDisplay:10.37,2013-02-03 07:33:00,
2013-02-03 02:38:00,13.6,10.5,29.79,South,174,0.8,2.3,87,0.00,-SN,BKN,0.00,0.0,WeatherDisplay:10.37,2013-02-03 07:38:00,
2013-02-03 02:43:00,14.0,11.1,29.78,South,177,0.0,0.0,88,0.00,-SN,BKN,0.00,0.0,WeatherDisplay:10.37,2013-02-03 07:43:00,
2013-02-03 02:48:00,14.4,11.5,29.78,SSE,164,0.1,1.1,88,0.00,-SN,BKN,0.00,0.0,WeatherDisplay:10.37,2013-02-03 07:48:00,
2013-02-03 02:53:00,14.5,11.4,29.78,SSE,165,0.0,0.0,87,0.00,-SN,BKN,0.00,0.0,WeatherDisplay:10.37,2013-02-03 07:53:00,
2013-02-03 02:58:00,14.5,11.4,29.78,SSE,162,0.0,0.0,87,0.00,-SN,BKN,0.00,0.0,WeatherDisplay:10.37,2013-02-03 07:58:00,
2013-02-03 03:03:00,14.7,11.6,29.78,South,169,0.0,0.0,87,0.00,-SN,BKN,0.00,0.0,WeatherDisplay:10.37,2013-02-03 08:03:00,
2013-02-03 03:08:00,14.7,11.6,29.78,SSE,168,0.0,0.0,87,0.00,-SN,BKN,0.00,0.0,WeatherDisplay:10.37,2013-02-03 08:08:00,
2013-02-03 03:13:00,14.9,11.7,29.78,South,177,0.1,1.1,87,0.00,-SN,BKN,0.00,0.0,WeatherDisplay:10.37,2013-02-03 08:13:00,
2013-02-03 03:18:00,15.1,12.2,29.78,SSW,199,0.0,0.0,88,0.00,-SN,BKN,0.00,0.0,WeatherDisplay:10.37,2013-02-03 08:18:00,
2013-02-03 03:23:00,15.4,12.3,29.78,South,186,0.1,1.1,87,0.00,-SN,BKN,0.00,0.0,WeatherDisplay:10.37,2013-02-03 08:23:00,
2013-02-03 03:28:00,15.3,12.3,29.77,South,183,1.1,2.3,88,0.00,-SN,BKN,0.00,0.0,WeatherDisplay:10.37,2013-02-03 08:28:00,
2013-02-03 03:33:00,15.6,12.7,29.77,South,179,0.3,1.4,88,0.00,-SN,BKN,0.00,0.0,WeatherDisplay:10.37,2013-02-03 08:33:00,
2013-02-03 03:38:00,16.0,13.1,29.77,South,181,0.2,1.1,88,0.00,-SN,BKN,0.00,0.0,WeatherDisplay:10.37,2013-02-03 08:38:00,
2013-02-03 03:43:00,16.0,13.1,29.77,South,187,1.1,2.3,88,0.00,-SN,BKN,0.00,0.0,WeatherDisplay:10.37,2013-02-03 08:43:00,
2013-02-03 03:48:00,16.2,13.0,29.77,South,176,0.8,2.3,87,0.00,-SN,BKN,0.00,0.0,WeatherDisplay:10.37,2013-02-03 08:48:00,
2013-02-03 03:53:00,16.5,13.6,29.77,South,182,0.0,0.0,88,0.00,-SN,BKN,0.00,0.0,WeatherDisplay:10.37,2013-02-03 08:53:00,
2013-02-03 03:58:00,16.7,13.8,29.77,South,186,0.0,0.0,88,0.00,-SN,BKN,0.00,0.0,WeatherDisplay:10.37,2013-02-03 08:58:00,
2013-02-03 04:03:00,16.7,13.5,29.77,SSE,167,0.0,0.0,87,0.00,-SN,BKN,0.00,0.0,WeatherDisplay:10.37,2013-02-03 09:03:00,
2013-02-03 04:08:00,16.9,13.9,29.77,South,174,0.1,1.1,88,0.00,-SN,BKN,0.00,0.0,WeatherDisplay:10.37,2013-02-03 09:08:00,
2013-02-03 04:13:00,17.1,14.1,29.76,South,182,0.0,0.0,88,0.00,-SN,BKN,0.00,0.0,WeatherDisplay:10.37,2013-02-03 09:13:00,
2013-02-03 04:18:00,17.1,14.1,29.76,South,190,0.0,0.0,88,0.00,-SN,BKN,0.00,0.0,WeatherDisplay:10.37,2013-02-03 09:18:00,
2013-02-03 04:23:00,17.4,14.2,29.76,South,186,0.0,0.0,87,0.00,-SN,BKN,0.00,0.0,WeatherDisplay:10.37,2013-02-03 09:23:00,
2013-02-03 04:28:00,17.8,14.8,29.76,SSW,199,0.0,0.0,88,0.00,-SN,BKN,0.00,0.0,WeatherDisplay:10.37,2013-02-03 09:28:00,
2013-02-03 04:33:00,18.0,15.0,29.76,SSW,206,0.0,0.0,88,0.00,-SN,BKN,0.00,0.0,WeatherDisplay:10.37,2013-02-03 09:33:00,
2013-02-03 04:38:00,18.0,15.0,29.76,SSW,205,0.0,0.0,88,0.00,-SN,BKN,0.00,0.0,WeatherDisplay:10.37,2013-02-03 09:38:00,
2013-02-03 04:43:00,18.1,14.9,29.76,SW,214,0.0,0.0,87,0.00,-SN,BKN,0.00,0.0,WeatherDisplay:10.37,2013-02-03 09:43:00,
2013-02-03 04:48:00,18.3,15.4,29.76,SSW,198,0.0,0.0,88,0.00,-SN,BKN,0.00,0.0,WeatherDisplay:10.37,2013-02-03 09:48:00,
2013-02-03 04:53:00,18.3,15.1,29.76,SSW,193,0.0,0.0,87,0.00,-SN,BKN,0.00,0.0,WeatherDisplay:10.37,2013-02-03 09:53:00,
2013-02-03 04:58:00,18.7,15.7,29.76,SSW,211,0.0,0.0,88,0.00,-SN,BKN,0.00,0.0,WeatherDisplay:10.37,2013-02-03 09:58:00,
2013-02-03 05:03:00,18.7,15.7,29.76,SSW,194,0.2,2.3,88,0.00,-SN,BKN,0.00,0.0,WeatherDisplay:10.37,2013-02-03 10:03:00,
2013-02-03 05:08:00,18.7,15.7,29.76,SSW,208,0.1,1.1,88,0.00,-SN,BKN,0.00,0.0,WeatherDisplay:10.37,2013-02-03 10:08:00,
2013-02-03 05:13:00,18.9,15.9,29.76,SSW,208,0.0,0.0,88,0.00,-SN,BKN,0.00,0.0,WeatherDisplay:10.37,2013-02-03 10:13:00,
2013-02-03 05:18:00,18.9,15.9,29.75,SSW,212,0.0,1.1,88,0.00,-SN,BKN,0.00,0.0,WeatherDisplay:10.37,2013-02-03 10:18:00,
2013-02-03 05:23:00,19.2,16.2,29.75,SSW,205,0.1,1.3,88,0.00,-SN,BKN,0.00,0.0,WeatherDisplay:10.37,2013-02-03 10:23:00,
2013-02-03 05:28:00,19.4,16.4,29.75,SSW,210,0.3,1.4,88,0.00,-SN,BKN,0.00,0.0,WeatherDisplay:10.37,2013-02-03 10:28:00,
2013-02-03 05:33:00,19.6,16.6,29.75,SSW,205,0.0,0.0,88,0.00,BKN,,0.00,0.0,WeatherDisplay:10.37,2013-02-03 10:33:00,
2013-02-03 05:38:00,19.4,16.2,29.74,SSW,211,0.4,2.3,87,0.00,BKN,,0.00,0.0,WeatherDisplay:10.37,2013-02-03 10:38:00,
2013-02-03 05:43:00,19.8,16.8,29.74,SSW,206,1.6,3.5,88,0.00,BKN,,0.00,0.0,WeatherDisplay:10.37,2013-02-03 10:43:00,
2013-02-03 05:48:00,19.6,16.3,29.74,South,182,0.0,0.0,87,0.00,BKN,,0.00,0.0,WeatherDisplay:10.37,2013-02-03 10:48:00,
2013-02-03 05:53:00,19.8,16.5,29.74,SSW,198,0.0,0.0,87,0.00,BKN,,0.00,0.0,WeatherDisplay:10.37,2013-02-03 10:53:00,
2013-02-03 05:58:00,19.6,16.1,29.73,South,188,0.0,0.0,86,0.00,BKN,,0.00,0.0,WeatherDisplay:10.37,2013-02-03 10:58:00,
2013-02-03 06:03:00,19.2,15.7,29.74,South,172,0.0,0.0,86,0.00,-SN,BKN,0.00,0.0,WeatherDisplay:10.37,2013-02-03 11:03:00,
2013-02-03 06:08:00,19.0,15.5,29.73,SSW,193,0.1,1.1,86,0.00,-SN,BKN,0.00,0.0,WeatherDisplay:10.37,2013-02-03 11:08:00,
2013-02-03 06:13:00,18.9,15.4,29.73,South,184,0.3,1.1,86,0.00,-SN,BKN,0.00,0.0,WeatherDisplay:10.37,2013-02-03 11:13:00,
2013-02-03 06:18:00,18.7,15.2,29.73,South,186,0.0,0.0,86,0.00,-SN,BKN,0.00,0.0,WeatherDisplay:10.37,2013-02-03 11:18:00,
2013-02-03 06:23:00,18.3,14.8,29.73,SSW,192,0.0,0.0,86,0.00,-SN,BKN,0.00,0.0,WeatherDisplay:10.37,2013-02-03 11:23:00,
2013-02-03 06:28:00,18.0,14.7,29.73,South,186,1.9,4.6,87,0.00,-SN,BKN,0.00,0.0,WeatherDisplay:10.37,2013-02-03 11:28:00,
2013-02-03 06:33:00,17.8,14.6,29.73,South,188,1.5,2.3,87,0.00,-SN,BKN,0.00,0.0,WeatherDisplay:10.37,2013-02-03 11:33:00,
2013-02-03 06:38:00,17.8,14.6,29.73,South,187,0.3,1.1,87,0.00,-SN,BKN,0.00,0.0,WeatherDisplay:10.37,2013-02-03 11:38:00,
2013-02-03 06:43:00,17.6,14.4,29.73,South,182,0.3,1.1,87,0.00,-SN,BKN,0.00,0.0,WeatherDisplay:10.37,2013-02-03 11:43:00,
2013-02-03 06:48:00,17.4,14.2,29.73,South,177,0.3,1.1,87,0.00,-SN,BKN,0.00,0.0,WeatherDisplay:10.37,2013-02-03 11:48:00,
2013-02-03 06:53:00,17.4,14.5,29.73,South,180,0.4,2.3,88,0.00,-SN,BKN,0.00,0.0,WeatherDisplay:10.37,2013-02-03 11:53:00,
2013-02-03 06:58:00,17.1,14.1,29.73,South,180,0.0,0.0,88,0.00,-SN,BKN,0.00,0.0,WeatherDisplay:10.37,2013-02-03 11:58:00,
2013-02-03 07:03:00,16.9,13.9,29.73,South,187,1.6,2.3,88,0.00,-SN,BKN,0.00,0.0,WeatherDisplay:10.37,2013-02-03 12:03:00,
2013-02-03 07:08:00,16.9,13.9,29.73,South,180,0.9,3.5,88,0.00,-SN,BKN,0.00,0.0,WeatherDisplay:10.37,2013-02-03 12:08:00,
2013-02-03 07:13:00,16.9,13.9,29.73,South,185,2.1,4.6,88,0.00,-SN,BKN,0.00,0.0,WeatherDisplay:10.37,2013-02-03 12:13:00,
2013-02-03 07:18:00,16.9,13.9,29.73,SSW,196,0.9,3.5,88,0.00,-SN,BKN,0.00,0.0,WeatherDisplay:10.37,2013-02-03 12:18:00,
2013-02-03 07:23:00,16.9,13.9,29.74,SSW,192,0.6,2.3,88,0.00,-SN,BKN,0.00,0.0,WeatherDisplay:10.37,2013-02-03 12:23:00,
2013-02-03 07:28:00,16.9,13.9,29.73,SSW,199,1.6,2.8,88,0.00,-SN,BKN,0.00,0.0,WeatherDisplay:10.37,2013-02-03 12:28:00,
2013-02-03 07:33:00,16.9,13.9,29.73,South,183,1.2,2.3,88,0.00,-SN,BKN,0.00,0.0,WeatherDisplay:10.37,2013-02-03 12:33:00,
2013-02-03 07:38:00,16.5,13.6,29.73,SSW,195,1.6,3.5,88,0.00,-SN,BKN,0.00,0.0,WeatherDisplay:10.37,2013-02-03 12:38:00,
2013-02-03 07:43:00,16.7,13.8,29.73,SSW,195,2.0,3.5,88,0.00,-SN,BKN,0.00,0.0,WeatherDisplay:10.37,2013-02-03 12:43:00,
2013-02-03 07:48:00,16.7,13.8,29.73,SSW,197,2.1,3.5,88,0.00,-SN,BKN,0.00,0.0,WeatherDisplay:10.37,2013-02-03 12:48:00,
2013-02-03 07:53:00,16.9,13.9,29.73,SSW,198,1.2,2.3,88,0.00,-SN,BKN,0.00,0.0,WeatherDisplay:10.37,2013-02-03 12:53:00,
2013-02-03 07:58:00,16.9,13.9,29.73,SSW,200,1.7,3.5,88,0.00,-SN,BKN,0.00,0.0,WeatherDisplay:10.37,2013-02-03 12:58:00,
2013-02-03 08:03:00,16.9,13.7,29.73,SSW,198,1.0,2.3,87,0.00,-SN,BKN,0.00,0.0,WeatherDisplay:10.37,2013-02-03 13:03:00,
2013-02-03 08:08:00,16.9,13.9,29.73,South,187,1.2,4.6,88,0.00,-SN,BKN,0.00,0.0,WeatherDisplay:10.37,2013-02-03 13:08:00,
2013-02-03 08:13:00,17.1,14.1,29.73,SSW,192,0.3,3.5,88,0.00,-SN,BKN,0.00,0.0,WeatherDisplay:10.37,2013-02-03 13:13:00,
2013-02-03 08:18:00,17.4,14.2,29.73,SSW,195,0.0,0.0,87,0.00,-SN,BKN,0.00,0.0,WeatherDisplay:10.37,2013-02-03 13:18:00,
2013-02-03 08:23:00,17.8,14.6,29.73,SSW,194,0.0,0.0,87,0.00,-SN,BKN,0.00,0.0,WeatherDisplay:10.37,2013-02-03 13:23:00,
2013-02-03 08:28:00,18.0,14.7,29.73,SSW,195,0.0,0.0,87,0.00,-SN,BKN,0.00,0.0,WeatherDisplay:10.37,2013-02-03 13:28:00,
2013-02-03 08:33:00,18.7,15.5,29.73,SSW,204,0.0,0.0,87,0.00,-SN,BKN,0.00,221.1,WeatherDisplay:10.37,2013-02-03 13:33:00,
2013-02-03 08:38:00,18.9,15.4,29.73,SSW,207,1.7,2.3,86,0.00,-SN,BKN,0.00,236.6,WeatherDisplay:10.37,2013-02-03 13:38:00,
2013-02-03 08:43:00,18.9,14.8,29.73,SSW,197,0.2,1.1,84,0.00,-SN,BKN,0.00,227.3,WeatherDisplay:10.37,2013-02-03 13:43:00,
2013-02-03 08:48:00,19.4,15.4,29.73,SSW,211,0.0,1.1,84,0.00,-SN,BKN,0.00,260.8,WeatherDisplay:10.37,2013-02-03 13:48:00,
2013-02-03 08:53:00,19.8,15.4,29.73,WSW,253,0.0,0.0,83,0.00,-SN,BKN,0.00,260.8,WeatherDisplay:10.37,2013-02-03 13:53:00,
2013-02-03 08:58:00,19.8,15.4,29.73,WSW,244,0.6,2.3,83,0.00,-SN,BKN,0.00,308.0,WeatherDisplay:10.37,2013-02-03 13:58:00,
2013-02-03 09:03:00,19.9,15.3,29.72,WSW,248,0.0,1.1,82,0.00,BKN,,0.00,309.3,WeatherDisplay:10.37,2013-02-03 14:03:00,
2013-02-03 09:08:00,20.1,15.5,29.73,SW,232,0.0,2.3,82,0.00,BKN,,0.00,277.6,WeatherDisplay:10.37,2013-02-03 14:08:00,
2013-02-03 09:13:00,19.8,14.9,29.72,SW,224,0.5,3.5,81,0.00,BKN,,0.00,324.2,WeatherDisplay:10.37,2013-02-03 14:13:00,
2013-02-03 09:18:00,20.1,15.2,29.73,SW,217,2.4,3.5,81,0.00,BKN,,0.00,309.3,WeatherDisplay:10.37,2013-02-03 14:18:00,
2013-02-03 09:23:00,19.8,14.9,29.73,SSW,206,3.0,3.5,81,0.00,BKN,,0.00,356.5,WeatherDisplay:10.37,2013-02-03 14:23:00,
2013-02-03 09:28:00,20.3,15.4,29.72,SSW,210,3.4,5.8,81,0.00,BKN,,0.00,285.0,WeatherDisplay:10.37,2013-02-03 14:28:00,
2013-02-03 09:33:00,20.5,15.3,29.72,SSW,199,4.0,5.8,80,0.00,BKN,,0.00,348.4,WeatherDisplay:10.37,2013-02-03 14:33:00,
2013-02-03 09:38:00,20.1,14.9,29.72,SSW,197,3.4,5.8,80,0.00,BKN,,0.00,182.0,WeatherDisplay:10.37,2013-02-03 14:38:00,
2013-02-03 09:43:00,20.1,14.9,29.72,SSW,200,3.3,5.8,80,0.00,BKN,,0.00,119.9,WeatherDisplay:10.37,2013-02-03 14:43:00,
2013-02-03 09:48:00,19.9,14.8,29.72,SSW,195,2.6,4.6,80,0.00,BKN,,0.00,106.2,WeatherDisplay:10.37,2013-02-03 14:48:00,
2013-02-03 09:53:00,19.8,14.6,29.72,SSW,210,2.2,3.5,80,0.00,BKN,,0.00,98.7,WeatherDisplay:10.37,2013-02-03 14:53:00,
2013-02-03 09:58:00,19.6,14.4,29.72,SSW,211,2.2,3.5,80,0.00,BKN,,0.00,96.9,WeatherDisplay:10.37,2013-02-03 14:58:00,
2013-02-03 10:03:00,19.6,14.7,29.72,SW,222,1.9,3.5,81,0.00,OVC,BKN,0.00,115.5,WeatherDisplay:10.37,2013-02-03 15:03:00,
2013-02-03 10:08:00,20.1,15.2,29.72,SSW,211,1.7,3.6,81,0.00,OVC,BKN,0.00,147.2,WeatherDisplay:10.37,2013-02-03 15:08:00,
2013-02-03 10:13:00,20.1,14.9,29.72,SW,223,1.5,2.3,80,0.00,OVC,BKN,0.00,153.4,WeatherDisplay:10.37,2013-02-03 15:13:00,
2013-02-03 10:18:00,20.5,15.3,29.72,SW,218,2.4,5.3,80,0.00,OVC,BKN,0.00,178.8,WeatherDisplay:10.37,2013-02-03 15:18:00,
2013-02-03 10:23:00,20.8,15.1,29.72,West,262,1.5,2.3,78,0.00,OVC,BKN,0.00,195.6,WeatherDisplay:10.37,2013-02-03 15:23:00,
2013-02-03 10:28:00,21.0,15.2,29.72,SSW,208,2.0,2.9,78,0.00,OVC,BKN,0.00,213.6,WeatherDisplay:10.37,2013-02-03 15:28:00,
2013-02-03 10:33:00,21.6,15.8,29.71,SW,220,0.9,3.0,78,0.00,OVC,BKN,0.00,216.7,WeatherDisplay:10.37,2013-02-03 15:33:00,
2013-02-03 10:38:00,21.7,15.6,29.72,SW,226,2.2,3.9,77,0.00,OVC,BKN,0.00,204.9,WeatherDisplay:10.37,2013-02-03 15:38:00,
2013-02-03 10:43:00,21.6,15.5,29.72,West,263,2.9,4.6,77,0.00,OVC,BKN,0.00,204.9,WeatherDisplay:10.37,2013-02-03 15:43:00,
2013-02-03 10:48:00,21.7,15.3,29.72,West,260,1.9,3.5,76,0.00,OVC,BKN,0.00,175.7,WeatherDisplay:10.37,2013-02-03 15:48:00,
2013-02-03 10:53:00,21.6,15.2,29.72,WSW,245,2.0,4.6,76,0.00,OVC,BKN,0.00,168.3,WeatherDisplay:10.37,2013-02-03 15:53:00,
2013-02-03 10:58:00,21.9,15.5,29.71,WSW,250,1.5,3.5,76,0.00,OVC,BKN,0.00,178.8,WeatherDisplay:10.37,2013-02-03 15:58:00,
2013-02-03 11:03:00,22.1,15.1,29.71,WSW,245,2.5,3.5,74,0.00,OVC,BKN,0.00,196.9,WeatherDisplay:10.37,2013-02-03 16:03:00,
2013-02-03 11:08:00,22.3,15.6,29.71,SW,226,1.4,3.5,75,0.00,OVC,BKN,0.00,192.5,WeatherDisplay:10.37,2013-02-03 16:08:00,
2013-02-03 11:13:00,22.5,15.4,29.70,SW,220,1.8,3.5,74,0.00,OVC,BKN,0.00,192.5,WeatherDisplay:10.37,2013-02-03 16:13:00,
2013-02-03 11:18:00,22.8,15.8,29.70,WSW,242,0.0,0.0,74,0.00,OVC,BKN,0.00,210.5,WeatherDisplay:10.37,2013-02-03 16:18:00,
2013-02-03 11:23:00,23.4,16.3,29.70,WSW,249,0.0,0.0,74,0.00,OVC,BKN,0.00,230.4,WeatherDisplay:10.37,2013-02-03 16:23:00,
2013-02-03 11:28:00,23.7,16.0,29.69,SW,214,1.4,2.3,72,0.00,OVC,BKN,0.00,224.2,WeatherDisplay:10.37,2013-02-03 16:28:00,
2013-02-03 11:33:00,23.5,15.2,29.69,WSW,250,2.2,4.6,70,0.00,OVC,BKN,0.00,213.6,WeatherDisplay:10.37,2013-02-03 16:33:00,
2013-02-03 11:38:00,23.7,15.4,29.69,West,281,1.8,5.5,70,0.00,OVC,BKN,0.00,210.5,WeatherDisplay:10.37,2013-02-03 16:38:00,
2013-02-03 11:43:00,24.1,15.7,29.69,West,275,1.9,5.8,70,0.00,OVC,BKN,0.00,201.8,WeatherDisplay:10.37,2013-02-03 16:43:00,
2013-02-03 11:48:00,24.3,15.2,29.69,SW,232,2.1,3.5,68,0.00,OVC,BKN,0.00,222.9,WeatherDisplay:10.37,2013-02-03 16:48:00,
2013-02-03 11:53:00,24.4,15.0,29.69,WNW,288,0.6,1.8,67,0.00,OVC,BKN,0.00,215.5,WeatherDisplay:10.37,2013-02-03 16:53:00,
2013-02-03 11:58:00,24.6,14.2,29.69,SSW,211,2.7,5.8,64,0.00,OVC,BKN,0.00,206.2,WeatherDisplay:10.37,2013-02-03 16:58:00,
2013-02-03 12:03:00,24.8,15.4,29.69,SSW,202,0.8,2.3,67,0.00,OVC,BKN,0.00,221.1,WeatherDisplay:10.37,2013-02-03 17:03:00,
2013-02-03 12:08:00,25.0,13.8,29.68,SW,227,0.9,2.3,62,0.00,OVC,BKN,0.00,230.4,WeatherDisplay:10.37,2013-02-03 17:08:00,
2013-02-03 12:13:00,25.0,12.7,29.68,SSW,206,4.3,4.7,59,0.00,OVC,BKN,0.00,221.1,WeatherDisplay:10.37,2013-02-03 17:13:00,
2013-02-03 12:18:00,25.0,11.5,29.67,SSW,213,2.4,4.6,56,0.00,OVC,BKN,0.00,240.9,WeatherDisplay:10.37,2013-02-03 17:18:00,
2013-02-03 12:23:00,24.8,11.3,29.67,WSW,240,3.8,5.8,56,0.00,OVC,BKN,0.00,210.5,WeatherDisplay:10.37,2013-02-03 17:23:00,
2013-02-03 12:28:00,24.6,11.5,29.67,WSW,240,4.0,5.8,57,0.00,OVC,BKN,0.00,229.1,WeatherDisplay:10.37,2013-02-03 17:28:00,
2013-02-03 12:33:00,25.0,11.5,29.67,SW,218,1.9,5.8,56,0.00,OVC,BKN,0.00,245.3,WeatherDisplay:10.37,2013-02-03 17:33:00,
2013-02-03 12:38:00,25.2,11.2,29.67,WSW,258,1.8,3.5,55,0.00,OVC,BKN,0.00,254.6,WeatherDisplay:10.37,2013-02-03 17:38:00,
2013-02-03 12:43:00,25.7,10.9,29.66,SW,214,1.5,4.6,53,0.00,OVC,BKN,0.00,247.2,WeatherDisplay:10.37,2013-02-03 17:43:00,
2013-02-03 12:48:00,26.1,11.7,29.66,SSW,195,3.6,6.9,54,0.00,OVC,BKN,0.00,237.8,WeatherDisplay:10.37,2013-02-03 17:48:00,
2013-02-03 12:53:00,25.3,11.4,29.66,SW,231,4.2,6.9,55,0.00,OVC,BKN,0.00,254.6,WeatherDisplay:10.37,2013-02-03 17:53:00,
2013-02-03 12:58:00,25.9,11.5,29.66,WNW,299,2.1,4.5,54,0.00,OVC,BKN,0.00,260.8,WeatherDisplay:10.37,2013-02-03 17:58:00,
2013-02-03 13:03:00,26.2,12.2,29.66,SW,236,1.5,2.8,55,0.00,OVC,BKN,0.00,292.5,WeatherDisplay:10.37,2013-02-03 18:03:00,
2013-02-03 13:08:00,26.1,12.1,29.65,South,184,4.1,6.9,55,0.00,OVC,BKN,0.00,347.1,WeatherDisplay:10.37,2013-02-03 18:08:00,
2013-02-03 13:13:00,26.1,11.7,29.65,SSW,209,3.9,5.8,54,0.00,OVC,BKN,0.00,262.1,WeatherDisplay:10.37,2013-02-03 18:13:00,
2013-02-03 13:18:00,26.1,10.8,29.65,West,266,4.0,5.8,52,0.00,OVC,BKN,0.00,260.8,WeatherDisplay:10.37,2013-02-03 18:18:00,
2013-02-03 13:23:00,26.1,10.4,29.65,SW,229,0.9,2.3,51,0.00,OVC,BKN,0.00,253.4,WeatherDisplay:10.37,2013-02-03 18:23:00,
2013-02-03 13:28:00,25.9,10.2,29.65,West,277,5.4,8.1,51,0.00,OVC,BKN,0.00,336.6,WeatherDisplay:10.37,2013-02-03 18:28:00,
2013-02-03 13:33:00,26.4,10.3,29.65,West,275,0.0,0.0,50,0.00,OVC,BKN,0.00,204.9,WeatherDisplay:10.37,2013-02-03 18:33:00,
2013-02-03 13:38:00,26.4,10.3,29.65,South,183,0.0,0.0,50,0.00,OVC,BKN,0.00,209.3,WeatherDisplay:10.37,2013-02-03 18:38:00,
2013-02-03 13:43:00,26.1,10.8,29.65,SW,232,1.4,4.6,52,0.00,OVC,BKN,0.00,215.5,WeatherDisplay:10.37,2013-02-03 18:43:00,
2013-02-03 13:48:00,25.9,11.1,29.65,SSW,210,2.6,5.8,53,0.00,OVC,BKN,0.00,196.9,WeatherDisplay:10.37,2013-02-03 18:48:00,
2013-02-03 13:53:00,25.9,11.1,29.64,WSW,237,0.9,3.5,53,0.00,OVC,BKN,0.00,200.0,WeatherDisplay:10.37,2013-02-03 18:53:00,
2013-02-03 13:58:00,25.9,11.1,29.64,West,276,1.8,4.6,53,0.00,OVC,BKN,0.00,195.6,WeatherDisplay:10.37,2013-02-03 18:58:00,
2013-02-03 14:03:00,26.6,10.9,29.64,West,268,0.0,0.0,51,0.00,OVC,BKN,0.00,204.9,WeatherDisplay:10.37,2013-02-03 19:03:00,
2013-02-03 14:08:00,26.1,12.1,29.64,West,270,3.3,4.6,55,0.00,OVC,BKN,0.00,193.8,WeatherDisplay:10.37,2013-02-03 19:08:00,
2013-02-03 14:13:00,26.2,11.8,29.63,WSW,258,3.5,5.8,54,0.00,OVC,BKN,0.00,186.3,WeatherDisplay:10.37,2013-02-03 19:13:00,
2013-02-03 14:18:00,26.2,11.4,29.63,West,271,1.5,3.5,53,0.00,OVC,BKN,0.00,168.3,WeatherDisplay:10.37,2013-02-03 19:18:00,
2013-02-03 14:23:00,25.9,10.6,29.63,WNW,284,2.5,4.6,52,0.00,OVC,BKN,0.00,163.9,WeatherDisplay:10.37,2013-02-03 19:23:00,
2013-02-03 14:28:00,26.8,11.5,29.63,NNW,335,0.5,3.5,52,0.00,OVC,BKN,0.00,167.0,WeatherDisplay:10.37,2013-02-03 19:28:00,
2013-02-03 14:33:00,26.4,12.0,29.63,West,260,1.4,2.3,54,0.00,OVC,BKN,0.00,167.0,WeatherDisplay:10.37,2013-02-03 19:33:00,
2013-02-03 14:38:00,26.4,12.4,29.63,WSW,245,2.4,3.5,55,0.00,OVC,BKN,0.00,168.3,WeatherDisplay:10.37,2013-02-03 19:38:00,
2013-02-03 14:43:00,26.4,12.8,29.63,WNW,297,3.1,6.9,56,0.00,OVC,BKN,0.00,169.5,WeatherDisplay:10.37,2013-02-03 19:43:00,
2013-02-03 14:48:00,27.3,14.1,29.63,NW,309,3.8,6.0,57,0.00,OVC,BKN,0.00,172.6,WeatherDisplay:10.37,2013-02-03 19:48:00,
2013-02-03 14:53:00,27.3,12.8,29.63,NW,326,1.4,4.6,54,0.00,OVC,BKN,0.00,177.6,WeatherDisplay:10.37,2013-02-03 19:53:00,
2013-02-03 14:58:00,27.5,12.6,29.63,NW,304,4.3,5.8,53,0.00,OVC,BKN,0.00,150.3,WeatherDisplay:10.37,2013-02-03 19:58:00,
2013-02-03 15:03:00,27.0,12.1,29.63,WNW,299,3.9,6.9,53,0.00,OVC,BKN,0.00,137.9,WeatherDisplay:10.37,2013-02-03 20:03:00,
2013-02-03 15:08:00,27.7,13.6,29.63,NNE,33,1.7,4.6,55,0.00,OVC,BKN,0.00,130.4,WeatherDisplay:10.37,2013-02-03 20:08:00,
2013-02-03 15:13:00,27.9,14.2,29.63,NNW,327,3.4,5.8,56,0.00,OVC,BKN,0.00,121.1,WeatherDisplay:10.37,2013-02-03 20:13:00,
2013-02-03 15:18:00,27.9,13.3,29.63,NNW,328,3.2,5.8,54,0.00,-SN,BKN,0.00,106.2,WeatherDisplay:10.37,2013-02-03 20:18:00,
2013-02-03 15:23:00,27.9,13.8,29.63,North,8,0.7,4.6,55,0.00,-SN,BKN,0.00,107.4,WeatherDisplay:10.37,2013-02-03 20:23:00,
2013-02-03 15:28:00,27.9,13.8,29.63,NNW,330,2.3,4.6,55,0.00,-SN,BKN,0.00,104.3,WeatherDisplay:10.37,2013-02-03 20:28:00,
2013-02-03 15:33:00,27.1,12.7,29.63,NNW,331,4.4,6.9,54,0.00,-SN,BKN,0.00,95.6,WeatherDisplay:10.37,2013-02-03 20:33:00,
2013-02-03 15:38:00,27.0,13.3,29.63,NNE,15,1.9,3.5,56,0.00,-SN,BKN,0.00,83.2,WeatherDisplay:10.37,2013-02-03 20:38:00,
2013-02-03 15:43:00,26.8,13.2,29.63,NNW,330,3.6,4.8,56,0.00,-SN,BKN,0.00,82.0,WeatherDisplay:10.37,2013-02-03 20:43:00,
2013-02-03 15:48:00,26.8,12.8,29.63,NNW,339,4.1,6.9,55,0.00,-SN,BKN,0.00,74.5,WeatherDisplay:10.37,2013-02-03 20:48:00,
2013-02-03 15:53:00,27.0,13.3,29.63,WNW,297,2.7,5.8,56,0.00,-SN,BKN,0.00,66.4,WeatherDisplay:10.37,2013-02-03 20:53:00,
2013-02-03 15:58:00,25.9,11.5,29.63,WNW,298,4.7,8.1,54,0.00,-SN,BKN,0.00,64.0,WeatherDisplay:10.37,2013-02-03 20:58:00,
2013-02-03 16:03:00,26.1,12.1,29.62,NNW,328,3.2,4.6,55,0.00,-SN,BKN,0.00,65.2,WeatherDisplay:10.37,2013-02-03 21:03:00,
2013-02-03 16:08:00,26.1,12.1,29.63,NW,310,4.2,5.8,55,0.00,-SN,BKN,0.00,60.9,WeatherDisplay:10.37,2013-02-03 21:08:00,
2013-02-03 16:13:00,25.5,11.6,29.63,NW,318,3.7,5.8,55,0.00,-SN,BKN,0.00,68.3,WeatherDisplay:10.37,2013-02-03 21:13:00,
2013-02-03 16:18:00,25.9,12.3,29.63,NNW,333,4.3,6.9,56,0.00,-SN,BKN,0.00,77.0,WeatherDisplay:10.37,2013-02-03 21:18:00,
2013-02-03 16:23:00,25.7,12.2,29.63,NW,311,3.8,4.8,56,0.00,-SN,BKN,0.00,68.3,WeatherDisplay:10.37,2013-02-03 21:23:00,
2013-02-03 16:28:00,24.6,10.3,29.63,WNW,303,2.9,5.8,54,0.00,-SN,BKN,0.00,60.9,WeatherDisplay:10.37,2013-02-03 21:28:00,
2013-02-03 16:33:00,24.6,10.7,29.63,NW,304,4.6,6.2,55,0.00,-SN,BKN,0.00,68.3,WeatherDisplay:10.37,2013-02-03 21:33:00,
2013-02-03 16:38:00,24.4,10.6,29.63,West,281,3.9,3.9,55,0.00,-SN,BKN,0.00,51.5,WeatherDisplay:10.37,2013-02-03 21:38:00,
2013-02-03 16:43:00,24.4,11.0,29.63,West,270,2.7,5.8,56,0.00,-SN,BKN,0.00,37.9,WeatherDisplay:10.37,2013-02-03 21:43:00,
2013-02-03 16:48:00,24.3,11.6,29.63,West,264,5.6,6.9,58,0.00,-SN,BKN,0.00,27.3,WeatherDisplay:10.37,2013-02-03 21:48:00,
2013-02-03 16:53:00,24.3,11.6,29.63,NW,315,5.3,7.4,58,0.00,-SN,BKN,0.00,19.9,WeatherDisplay:10.37,2013-02-03 21:53:00,
2013-02-03 16:58:00,24.1,11.4,29.63,NW,322,3.2,4.6,58,0.00,-SN,BKN,0.00,14.9,WeatherDisplay:10.37,2013-02-03 21:58:00,
2013-02-03 17:03:00,23.7,11.5,29.64,NW,315,5.7,6.9,59,0.00,-SN,BKN,0.00,9.3,WeatherDisplay:10.37,2013-02-03 22:03:00,
2013-02-03 17:08:00,23.7,12.6,29.64,NW,314,3.7,6.4,62,0.00,-SN,BKN,0.00,6.2,WeatherDisplay:10.37,2013-02-03 22:08:00,
2013-02-03 17:13:00,23.4,12.6,29.64,NW,307,5.5,6.9,63,0.00,-SN,BKN,0.00,6.2,WeatherDisplay:10.37,2013-02-03 22:13:00,
2013-02-03 17:18:00,23.2,13.1,29.64,WNW,296,4.1,5.9,65,0.00,-SN,BKN,0.00,4.3,WeatherDisplay:10.37,2013-02-03 22:18:00,
2013-02-03 17:23:00,23.2,13.1,29.64,NW,318,3.9,4.8,65,0.00,-SN,BKN,0.00,3.1,WeatherDisplay:10.37,2013-02-03 22:23:00,
2013-02-03 17:28:00,23.0,13.0,29.65,West,276,2.7,5.8,65,0.00,-SN,BKN,0.00,1.2,WeatherDisplay:10.37,2013-02-03 22:28:00,
2013-02-03 17:33:00,23.0,13.0,29.65,WNW,282,2.4,4.6,65,0.00,-SN,BKN,0.00,1.2,WeatherDisplay:10.37,2013-02-03 22:33:00,
2013-02-03 17:38:00,22.8,13.5,29.64,West,266,4.2,6.9,67,0.00,-SN,BKN,0.00,0.0,WeatherDisplay:10.37,2013-02-03 22:38:00,
2013-02-03 17:43:00,22.8,14.8,29.65,WNW,296,2.9,5.8,71,0.00,-SN,BKN,0.00,1.2,WeatherDisplay:10.37,2013-02-03 22:43:00,
2013-02-03 17:48:00,22.5,15.7,29.65,WSW,251,3.0,6.9,75,0.00,-SN,BKN,0.00,0.0,WeatherDisplay:10.37,2013-02-03 22:48:00,
2013-02-03 17:53:00,22.3,16.8,29.65,WSW,249,2.7,5.8,79,0.00,-SN,BKN,0.00,0.0,WeatherDisplay:10.37,2013-02-03 22:53:00,
2013-02-03 17:58:00,22.3,17.3,29.65,WNW,302,1.5,2.3,81,0.00,-SN,BKN,0.00,0.0,WeatherDisplay:10.37,2013-02-03 22:58:00,
2013-02-03 18:03:00,21.9,17.5,29.65,SW,222,0.8,2.3,83,0.00,-SN,BKN,0.00,0.0,WeatherDisplay:10.37,2013-02-03 23:03:00,
2013-02-03 18:08:00,21.7,17.4,29.65,West,263,2.1,4.6,83,0.00,-SN,BKN,0.00,0.0,WeatherDisplay:10.37,2013-02-03 23:08:00,
2013-02-03 18:13:00,21.9,17.8,29.65,SW,223,2.1,3.5,84,0.00,-SN,BKN,0.00,0.0,WeatherDisplay:10.37,2013-02-03 23:13:00,
2013-02-03 18:18:00,21.6,17.7,29.66,WSW,245,2.6,3.5,85,0.00,-SN,BKN,0.00,0.0,WeatherDisplay:10.37,2013-02-03 23:18:00,
2013-02-03 18:23:00,21.6,17.7,29.66,WSW,256,2.9,4.6,85,0.00,-SN,BKN,0.00,0.0,WeatherDisplay:10.37,2013-02-03 23:23:00,
2013-02-03 18:28:00,21.4,17.6,29.66,WSW,253,2.7,4.6,85,0.00,-SN,BKN,0.00,0.0,WeatherDisplay:10.37,2013-02-03 23:28:00,
2013-02-03 18:33:00,21.2,17.4,29.66,SW,219,2.1,4.6,85,0.00,-SN,BKN,0.00,0.0,WeatherDisplay:10.37,2013-02-03 23:33:00,
2013-02-03 18:38:00,21.2,17.7,29.66,WSW,256,3.8,4.6,86,0.00,-SN,BKN,0.00,0.0,WeatherDisplay:10.37,2013-02-03 23:38:00,
2013-02-03 18:43:00,21.4,17.8,29.66,WSW,252,2.5,4.6,86,0.00,-SN,BKN,0.00,0.0,WeatherDisplay:10.37,2013-02-03 23:43:00,
2013-02-03 18:48:00,21.4,18.1,29.66,West,262,3.0,4.6,87,0.00,-SN,BKN,0.00,0.0,WeatherDisplay:10.37,2013-02-03 23:48:00,
2013-02-03 18:53:00,21.2,17.9,29.67,WSW,241,2.9,4.6,87,0.00,-SN,BKN,0.00,0.0,WeatherDisplay:10.37,2013-02-03 23:53:00,
2013-02-03 18:58:00,21.2,17.7,29.67,SW,224,2.5,4.6,86,0.00,-SN,BKN,0.00,0.0,WeatherDisplay:10.37,2013-02-03 23:58:00,
2013-02-03 19:03:00,21.0,17.8,29.67,WSW,245,3.0,5.8,87,0.00,-SN,BKN,0.00,0.0,WeatherDisplay:10.37,2013-02-04 00:03:00,
2013-02-03 19:08:00,21.2,17.9,29.67,West,267,2.6,4.6,87,0.00,-SN,BKN,0.00,0.0,WeatherDisplay:10.37,2013-02-04 00:08:00,
2013-02-03 19:13:00,20.7,17.1,29.67,SW,232,3.1,4.6,86,0.00,-SN,BKN,0.00,0.0,WeatherDisplay:10.37,2013-02-04 00:13:00,
2013-02-03 19:18:00,20.8,17.6,29.67,SW,231,2.6,5.8,87,0.00,-SN,BKN,0.00,0.0,WeatherDisplay:10.37,2013-02-04 00:18:00,
2013-02-03 19:23:00,20.8,17.6,29.67,SW,231,3.0,6.0,87,0.00,-SN,BKN,0.00,0.0,WeatherDisplay:10.37,2013-02-04 00:23:00,
2013-02-03 19:28:00,20.7,17.4,29.68,WSW,255,4.3,5.8,87,0.00,-SN,BKN,0.00,0.0,WeatherDisplay:10.37,2013-02-04 00:28:00,
2013-02-03 19:33:00,20.7,17.7,29.67,WSW,255,3.9,5.6,88,0.00,-SN,BKN,0.00,0.0,WeatherDisplay:10.37,2013-02-04 00:33:00,
2013-02-03 19:38:00,20.5,17.5,29.68,SW,231,3.7,6.9,88,0.00,-SN,BKN,0.00,0.0,WeatherDisplay:10.37,2013-02-04 00:38:00,
2013-02-03 19:43:00,20.3,17.6,29.69,South,189,4.7,6.9,89,0.00,-SN,BKN,0.00,0.0,WeatherDisplay:10.37,2013-02-04 00:43:00,
2013-02-03 19:48:00,20.5,18.0,29.69,WSW,251,3.5,4.6,90,0.00,-SN,BKN,0.00,0.0,WeatherDisplay:10.37,2013-02-04 00:48:00,
2013-02-03 19:53:00,20.7,18.2,29.69,SW,223,3.1,4.6,90,0.00,-SN,BKN,0.00,0.0,WeatherDisplay:10.37,2013-02-04 00:53:00,
2013-02-03 19:58:00,20.7,18.2,29.69,SSW,210,2.5,5.8,90,0.00,-SN,BKN,0.00,0.0,WeatherDisplay:10.37,2013-02-04 00:58:00,
2013-02-03 20:03:00,20.7,18.2,29.69,SW,232,2.9,4.6,90,0.00,-SN,BKN,0.00,0.0,WeatherDisplay:10.37,2013-02-04 01:03:00,
2013-02-03 20:08:00,20.7,18.2,29.69,SSW,193,3.0,4.6,90,0.00,-SN,BKN,0.00,0.0,WeatherDisplay:10.37,2013-02-04 01:08:00,
2013-02-03 20:13:00,21.0,18.5,29.69,WSW,250,2.2,4.6,90,0.00,-SN,BKN,0.00,0.0,WeatherDisplay:10.37,2013-02-04 01:13:00,
2013-02-03 20:18:00,20.7,18.2,29.69,SW,222,3.2,4.6,90,0.00,-SN,BKN,0.00,0.0,WeatherDisplay:10.37,2013-02-04 01:18:00,
2013-02-03 20:23:00,20.5,17.8,29.69,West,265,3.4,4.6,89,0.00,-SN,BKN,0.00,0.0,WeatherDisplay:10.37,2013-02-04 01:23:00,
2013-02-03 20:28:00,20.1,17.1,29.69,WSW,242,4.4,8.1,88,0.00,-SN,BKN,0.00,0.0,WeatherDisplay:10.37,2013-02-04 01:28:00,
2013-02-03 20:33:00,19.9,16.7,29.69,WSW,239,3.8,6.9,87,0.00,-SN,BKN,0.00,0.0,WeatherDisplay:10.37,2013-02-04 01:33:00,
2013-02-03 20:38:00,20.1,17.1,29.69,West,265,3.9,6.9,88,0.00,-SN,BKN,0.00,0.0,WeatherDisplay:10.37,2013-02-04 01:38:00,
2013-02-03 20:43:00,19.9,16.7,29.69,SW,226,3.2,4.6,87,0.00,-SN,BKN,0.00,0.0,WeatherDisplay:10.37,2013-02-04 01:43:00,
2013-02-03 20:48:00,19.8,16.3,29.69,SSW,195,3.8,5.8,86,0.00,-SN,BKN,0.00,0.0,WeatherDisplay:10.37,2013-02-04 01:48:00,
2013-02-03 20:53:00,19.8,16.3,29.70,WSW,244,3.8,5.8,86,0.00,-SN,BKN,0.00,0.0,WeatherDisplay:10.37,2013-02-04 01:53:00,
2013-02-03 20:58:00,19.6,15.8,29.69,SW,234,5.1,8.1,85,0.00,-SN,BKN,0.00,0.0,WeatherDisplay:10.37,2013-02-04 01:58:00,
2013-02-03 21:03:00,19.4,15.6,29.70,WSW,253,5.2,9.2,85,0.00,-SN,BKN,0.00,0.0,WeatherDisplay:10.37,2013-02-04 02:03:00,
2013-02-03 21:08:00,19.6,15.8,29.70,WSW,244,3.7,6.9,85,0.00,-SN,BKN,0.00,0.0,WeatherDisplay:10.37,2013-02-04 02:08:00,
2013-02-03 21:13:00,19.2,15.2,29.70,West,261,5.2,9.2,84,0.00,-SN,BKN,0.00,0.0,WeatherDisplay:10.37,2013-02-04 02:13:00,
2013-02-03 21:18:00,19.6,15.8,29.70,West,267,3.5,6.9,85,0.00,-SN,BKN,0.00,0.0,WeatherDisplay:10.37,2013-02-04 02:18:00,
2013-02-03 21:23:00,19.0,15.5,29.70,West,266,4.5,8.1,86,0.00,-SN,BKN,0.00,0.0,WeatherDisplay:10.37,2013-02-04 02:23:00,
2013-02-03 21:28:00,18.9,15.6,29.70,WSW,255,4.9,6.9,87,0.00,-SN,BKN,0.00,0.0,WeatherDisplay:10.37,2013-02-04 02:28:00,
2013-02-03 21:33:00,19.2,16.0,29.70,SSW,202,3.0,4.6,87,0.00,-SN,BKN,0.00,0.0,WeatherDisplay:10.37,2013-02-04 02:33:00,
2013-02-03 21:38:00,19.6,16.6,29.70,WSW,257,3.2,5.8,88,0.00,-SN,BKN,0.00,0.0,WeatherDisplay:10.37,2013-02-04 02:38:00,
2013-02-03 21:43:00,19.6,16.9,29.70,SSE,151,3.3,3.5,89,0.00,-SN,BKN,0.00,0.0,WeatherDisplay:10.37,2013-02-04 02:43:00,
2013-02-03 21:48:00,18.9,15.9,29.70,SW,217,4.4,8.1,88,0.00,-SN,BKN,0.00,0.0,WeatherDisplay:10.37,2013-02-04 02:48:00,
2013-02-03 21:53:00,19.0,16.3,29.70,WSW,245,3.4,5.8,89,0.00,-SN,BKN,0.00,0.0,WeatherDisplay:10.37,2013-02-04 02:53:00,
2013-02-03 21:58:00,19.0,16.3,29.70,SW,226,2.8,6.9,89,0.00,-SN,BKN,0.00,0.0,WeatherDisplay:10.37,2013-02-04 02:58:00,
2013-02-03 22:03:00,18.9,16.2,29.70,SW,221,2.7,4.6,89,0.00,-SN,BKN,0.00,0.0,WeatherDisplay:10.37,2013-02-04 03:03:00,
2013-02-03 22:08:00,19.2,16.5,29.70,SW,232,4.3,5.8,89,0.00,-SN,BKN,0.00,0.0,WeatherDisplay:10.37,2013-02-04 03:08:00,
2013-02-03 22:13:00,19.2,16.2,29.70,NW,316,3.0,4.8,88,0.00,-SN,BKN,0.00,0.0,WeatherDisplay:10.37,2013-02-04 03:13:00,
2013-02-03 22:18:00,19.0,15.8,29.70,SW,218,4.8,5.8,87,0.00,OVC,BKN,0.00,0.0,WeatherDisplay:10.37,2013-02-04 03:18:00,
2013-02-03 22:23:00,18.7,15.5,29.70,SW,214,5.7,6.9,87,0.00,OVC,BKN,0.00,0.0,WeatherDisplay:10.37,2013-02-04 03:23:00,
2013-02-03 22:28:00,18.7,15.2,29.70,SW,214,3.8,5.8,86,0.00,OVC,BKN,0.00,0.0,WeatherDisplay:10.37,2013-02-04 03:28:00,
2013-02-03 22:33:00,18.0,14.5,29.69,SSW,192,5.2,8.1,86,0.00,OVC,BKN,0.00,0.0,WeatherDisplay:10.37,2013-02-04 03:33:00,
2013-02-03 22:38:00,18.0,14.5,29.70,SSW,206,4.9,8.1,86,0.00,OVC,BKN,0.00,0.0,WeatherDisplay:10.37,2013-02-04 03:38:00,
2013-02-03 22:43:00,17.8,14.0,29.70,SW,235,5.3,6.9,85,0.00,OVC,BKN,0.00,0.0,WeatherDisplay:10.37,2013-02-04 03:43:00,
2013-02-03 22:48:00,18.0,13.9,29.70,SW,227,4.9,7.7,84,0.00,OVC,BKN,0.00,0.0,WeatherDisplay:10.37,2013-02-04 03:48:00,
2013-02-03 22:53:00,17.6,13.6,29.70,SSW,206,5.9,9.2,84,0.00,OVC,BKN,0.00,0.0,WeatherDisplay:10.37,2013-02-04 03:53:00,
2013-02-03 22:58:00,17.8,13.2,29.70,WSW,237,3.5,8.1,82,0.00,OVC,BKN,0.00,0.0,WeatherDisplay:10.37,2013-02-04 03:58:00,
2013-02-03 23:03:00,17.4,12.6,29.70,WSW,257,7.0,8.1,81,0.00,OVC,BKN,0.00,0.0,WeatherDisplay:10.37,2013-02-04 04:03:00,
2013-02-03 23:08:00,17.4,12.6,29.70,SSW,200,5.4,7.9,81,0.00,OVC,BKN,0.00,0.0,WeatherDisplay:10.37,2013-02-04 04:08:00,
2013-02-03 23:13:00,17.4,12.3,29.70,SW,234,4.2,6.9,80,0.00,OVC,BKN,0.00,0.0,WeatherDisplay:10.37,2013-02-04 04:13:00,
2013-02-03 23:18:00,17.4,12.3,29.70,WSW,238,4.3,8.1,80,0.00,OVC,BKN,0.00,0.0,WeatherDisplay:10.37,2013-02-04 04:18:00,
2013-02-03 23:23:00,17.2,11.8,29.70,SSW,201,6.1,8.1,79,0.00,OVC,BKN,0.00,0.0,WeatherDisplay:10.37,2013-02-04 04:23:00,
2013-02-03 23:28:00,17.4,12.0,29.70,SW,228,4.1,8.1,79,0.00,OVC,BKN,0.00,0.0,WeatherDisplay:10.37,2013-02-04 04:28:00,
2013-02-03 23:33:00,17.4,12.0,29.70,WSW,251,4.3,5.8,79,0.00,OVC,BKN,0.00,0.0,WeatherDisplay:10.37,2013-02-04 04:33:00,
2013-02-03 23:38:00,17.4,12.0,29.70,SW,221,4.2,5.3,79,0.00,OVC,BKN,0.00,0.0,WeatherDisplay:10.37,2013-02-04 04:38:00,
2013-02-03 23:43:00,17.6,11.9,29.70,WSW,244,2.8,5.8,78,0.00,OVC,BKN,0.00,0.0,WeatherDisplay:10.37,2013-02-04 04:43:00,
2013-02-03 23:48:00,18.0,12.3,29.70,WSW,245,3.0,4.1,78,0.00,OVC,BKN,0.00,0.0,WeatherDisplay:10.37,2013-02-04 04:48:00,
2013-02-03 23:53:00,18.0,12.3,29.70,West,265,2.7,4.6,78,0.00,OVC,BKN,0.00,0.0,WeatherDisplay:10.37,2013-02-04 04:53:00,
2013-02-03 23:58:00,17.8,11.8,29.70,WSW,240,3.4,5.8,77,0.00,OVC,BKN,0.00,0.0,WeatherDisplay:10.37,2013-02-04 04:58:00,